www.pogodaiklimat.ru

Погода и климат >> Архив погоды >> Россия >> Сахалинская область >> Новиково


ПОГОДА в Новиково

  • Прогноз погоды в Новиково
  • Монитор погоды в Новиково

АРХИВ ПОГОДЫ в Новиково

Время (UTC), дата Ветер
(напр.,м/с)
 
Видим.   Явления Облачность Т
(С)
Тd
(С)
f
(%)
Тe
(С)
Тes
(С)
Комфортность P
(гПа)
Po
(гПа)
Тmin
(С)
Tmax
(С)
R
(мм)
R24
(мм)
S
(см)
00 12.07 З 4-5
{6}
4000 м дымка {туман} 8/4 600 м
[Cu med, cong Ac trans]
+16.6 +15.5 93 +16 +19 1010.6 1009.3
03 12.07 СЗ 3-4
{7}
2000 м дымка 9/4 300 м
[St Ac As]
+17.2 +16.3 94 +17 +21 1008.4 1007.0
06 12.07 З 2-3
{5}
4000 м дымка 10/0
[As op]
+17.2 +17.0 99 +17 +17 1008.0 1006.7
09 12.07 СВ 2-4
{5}
20 км 8/0
[As trans Cs]
+17.5 +13.4 77 +18 +18 1008.0 1006.7 +20.3
12 12.07 СВ 3-5
{6}
20 км 5/0
[Cs]
+14.1 +13.9 99 +13 +13 1008.0 1006.7
15 12.07 СВ 3-5
{6}
20 км 3/3 300 м
[St]
+12.3 +12.2 99 +11 +11 1007.6 1006.2
18 12.07 СВ 4-5
{7}
20 км 8/8 300 м
[St]
+13.4 +13.2 99 +12 +12 1008.0 1006.7
21 12.07 С 3-5
{6}
10 км 6/4 300 м
[St Cs]
+13.9 +13.8 99 +13 +14 1007.6 1006.2 +11.8
00 13.07 В 4-6
{9}
20 км 6/0
[Cs]
+18.0 +15.3 84 +18 +22 1008.0 1006.7
03 13.07 З 4-5
{6}
20 км 8/0
[Ac trans Cs]
+17.6 +15.7 89 +17 +26 1007.8 1006.4
06 13.07 ЮЗ 1-1
{6}
20 км 8/4 600 м
[Sc Cs]
+18.9 +15.2 79 +21 +24 комфорт 1009.3 1008.0
09 13.07 В 6-8
{8}
20 км 10/3 600 м
[Cb cap As op Cs]
+16.2 +15.0 93 +15 +15 1008.1 1006.7 +19.7
12 13.07 В 8-11
{12}
4000 м слаб. ливневой дождь 10/5 600 м
[Cb cap As op]
+14.0 +13.9 99 +11 +11 1009.0 1007.6
15 13.07 СВ 2-5
{11}
4000 м дымка {ливн. осадки} 10/5 300 м
[St As op]
+14.2 +14.1 99 +14 +14 1009.6 1008.1
18 13.07 В 5-7
{8}
4000 м слаб. ливневой дождь 10/10 600 м
[Cb cap]
+14.3 +14.1 99 +12 +12 1010.6 1009.3
21 13.07 СВ 5-7
{7}
4000 м слаб. ливневой дождь 10/6 600 м
[Cb cap As op]
+14.6 +14.5 99 +13 +13 1010.3 1008.9 +14.0 5
00 14.07 В 4-6
{8}
4000 м слаб. ливневой дождь 10/10 300 м
[Cb cap]
+16.2 +16.0 99 +15 +15 1012.0 1010.7
03 14.07 В 4-6
{8}
4000 м дымка {ливн. осадки} 10/10 300 м
[Cb cap]
+16.7 +16.6 99 +16 +16 1011.4 1010.0
06 14.07 В 3-5
{7}
4000 м слаб. ливневой дождь 10/10 300 м
[Cb cap]
+15.8 +15.6 99 +15 +15 1013.3 1012.0
09 14.07 В 3-5
{6}
4000 м слаб. ливневой дождь 10/10 300 м
[Cb cap]
+14.4 +14.2 99 +13 +13 1013.3 1012.0 +17.1 0.8
12 14.07 СВ 3-4
{6}
4000 м дымка {ливн. осадки} 10/10 300 м
[Cb cap]
+14.1 +13.9 99 +13 +13 1014.6 1013.3
15 14.07 СВ 3-5
{6}
2000 м дымка 10/10 300 м
[St]
+13.8 +13.7 99 +13 +13 1013.6 1012.2
18 14.07 В 2-3
{6}
2000 м дымка 10/5 300 м
[St As op]
+13.8 +13.6 99 +13 +13 1014.6 1013.3
21 14.07 СВ 2-3
{4}
10 км 9/4 300 м
[St Ac As]
+14.1 +13.7 97 +13 +14 1015.1 1013.6 +13.5 0.0
00 15.07 В 2-4
{6}
10 км 8/3 300 м
[St Ac trans]
+17.1 +13.8 81 +17 +21 1017.3 1016.0
03 15.07 В 5-8
{10}
10 км 3/3 600 м
[Cu med, cong]
+18.3 +13.4 73 +18 +25 1015.9 1014.5
06 15.07 В 4-8
{10}
20 км 1/1 600 м
[Cu hum]
+17.6 +11.6 68 +17 +23 1017.3 1016.0
09 15.07 В 3-5
{8}
20 км ясно +15.0 +11.8 81 +14 +15 1017.3 1016.0 +18.5
12 15.07 СВ 2-4
{7}
50 км 3/3 600 м
[Cu hum]
+12.3 +12.1 99 +11 +11 1017.3 1016.0
15 15.07 В 2-4
{8}
50 км 5/0
[Ac trans]
+11.9 +11.8 99 +11 +11 1017.7 1016.2
18 15.07 В 3-5
{6}
50 км 5/3 600 м
[Sc Ac trans]
+11.1 +10.9 99 +9 +9 1018.6 1017.3
21 15.07 В 4-6
{7}
20 км 3/3 600 м
[Cu hum]
+12.7 +12.6 99 +11 +12 1017.3 1015.8 +11.0
00 16.07 В 4-6
{8}
20 км ясно +16.2 +13.1 82 +15 +24 1018.6 1017.3
03 16.07 Ю 4-5
{6}
20 км 3/3 600 м
[Cu hum]
+16.6 +14.5 87 +16 +24 1017.1 1015.7
06 16.07 З 2-3
{5}
20 км 3/0
[Ci sp]
+16.9 +14.7 87 +17 +25 1017.3 1016.0
09 16.07 З 1-1
{3}
20 км 3/0
[Ci sp]
+17.0 +15.2 89 +18 +19 1016.0 1014.7 +18.1
12 16.07 СВ 2-2
{7}
20 км ясно +12.4 +12.2 99 +11 +11 1017.3 1016.0
15 16.07 С 2-3
{4}
20 км 6/6 600 м
[Sc]
+11.0 +10.9 99 +10 +10 1016.0 1014.5
18 16.07 СВ 2-2
{3}
20 км 6/6 600 м
[Sc]
+10.6 +10.4 99 +9 +9 1016.0 1014.7
21 16.07 штиль 0
{2}
20 км 8/8 600 м
[Sc]
+15.7 +14.3 91 +15 +16 1015.3 1013.9 +10.3
00 17.07 Ю 2-3
{3}
20 км 3/1 600 м
[Cu hum Cc]
+18.1 +14.6 80 +19 +29 1016.0 1014.7
03 17.07 ЮЗ 2-3
{5}
20 км 1/1 600 м
[Cu hum]
+18.7 +16.8 89 +20 +36 опасность
простуды
1014.3 1012.9
06 17.07 Ю 3-4
{4}
20 км 1/1 600 м
[Cu hum]
+19.5 +17.5 88 +22 +29 комфорт 1014.6 1013.3
09 17.07 Ю 4-5
{6}
20 км ясно +18.6 +18.2 98 +20 +20 1012.8 1011.4 +20.2
12 17.07 штиль 0
{5}
20 км ясно +16.3 +16.1 99 +16 +16 1014.6 1013.3
15 17.07 В 1-2
{2}
20 км 5/0
[Ci fib]
+15.3 +15.2 99 +16 +16 1013.1 1011.7
18 17.07 штиль 0
{4}
20 км {ливн. осадки} 10/5 600 м
[Cb cap As op]
+17.1 +16.9 99 +17 +17 1013.3 1012.0
21 17.07 Ю 3-5
{6}
4000 м слаб. ливневой дождь 10/10 300 м
[Cb cap]
+18.2 +18.1 99 +19 +19 1013.0 1011.6 +13.2 6
00 18.07 Ю 5-7
{7}
10 км в посл. час ливневой дождь 10/5 300 м
[Cb cap As op]
+18.7 +18.5 99 +20 +20 1013.3 1012.0
03 18.07 Ю 6-9
{10}
4000 м слаб. ливневой дождь 10/10 300 м
[Cb cap]
+18.7 +18.6 99 +19 +19 1012.3 1010.9
06 18.07 Ю 4 4000 м слаб. ливневой дождь 10 баллов +18.4 +18.2 99 +19 +19 1012.0 1010.7
09 18.07 Ю 4-6
{8}
4000 м слаб. ливневой дождь 10/6 600 м
[Cb cap As op]
+18.4 +18.2 99 +19 +19 1012.0 1010.7 +19.2 2
12 18.07 Ю 3 50 км в посл. час ливневой дождь 10 баллов +18.2 +18.0 99 +19 +19 1013.3 1012.0
15 18.07 Ю 5-6
{7}
50 км 10/0
[As op]
+18.4 +18.3 99 +19 +19 1012.0 1010.6
18 18.07 Ю 5 50 км 10 баллов +18.1 +17.9 99 +18 +18 1012.0 1010.7

 

Местоположение метеостанции Новиково (Сахалинская область, Россия): широта 46.38 долгота 143.30 высота над уровнем моря 11 м.

В архиве по умолчанию представлена погода в Новиково за последнюю неделю. Архивные данные за месяц целиком и за предыдущие месяцы, начиная с января 2011 года, Вы можете получить, выбрав интересующий диапазон дат из раскрывающегося списка и нажав кнопку "Ввод!".


*Определитесь, кто Вы:
робот инопланетянин человек

Внимание! Время в таблицах - всемирное. Для получения местного времени необходимо прибавить поправку, которая равна 11 ч.

Смотрите также архив погоды в соседних городах и на ближайших метеорологических станциях:

Погода в Мальково (Сахалинская область, Россия) (44 км)
Погода в Корсакове (Сахалинская область, Россия) (55 км)
Погода в Южно-Сахалинске (Сахалинская область, Россия) (78 км)
Погода в Огоньках (Сахалинская область, Россия) (82 км)
Погода в Долинске (Сахалинская область, Россия) (112 км)
Погода на Мысе Крильон (Сахалинская область, Россия) (114 км)
Погода в Невельске (Сахалинская область, Россия) (119 км)
Погода в Стародубском (Сахалинская область, Россия) (122 км)
Погода в Холмске (Сахалинская область, Россия) (124 км)
Погода на Острове Монерон (Сахалинская область, Россия) (162 км)

Пояснения к столбцам:

Ветер - указаны скорость ветра в м/с - средняя за 10 мин, порывы в срок и между сроками (в фигурных скобках) и направление, откуда дует ветер: С - северный, СВ - северо-восточный, В - восточный, ЮВ - юго-восточный, Ю - южный, ЮЗ - юго-западный, З - западный, СЗ - северо-западный.
Видимость - горизонтальная дальность видимости в метрах или километрах. При видимости от 1 до 10 км при отсутствии осадков обычно наблюдается дымка, при ухудшении видимости до 1 км и менее - туман. В сухую погоду видимость может ухудшаться дымом, пылью или мглою.
Явления - указаны атмосферные явления, наблюдавшиеся в срок или в последний час перед сроком; фигурными скобками обозначены явления, наблюдавшиеся между сроками (за 1-3 часа до срока); квадратными скобками обозначены град или гололедные отложения с указанием их диаметра в мм.
Облачность - указаны через наклонную черту общая и нижняя облачность в баллах и высота нижней границы облаков в метрах; квадратными скобками обозначены формы облаков: Ci - перистые, Cs - перисто-слоистые, Cc - перисто-кучевые, Ac - высококучевые, As - высокослоистые, Sc - слоисто-кучевые, Ns - слоисто-дождевые, Cu - кучевые, Cb - кучево-дождевые. Подробнее классификацию облаков см. в Атласе облаков (PDF).
T - Температура воздуха - температура, измеренная на высоте 2 м над землей.
Td - Температура точки росы - температура, при понижении до которой содержащийся в воздухе водяной пар достигнет насыщения.
f - Относительная влажность воздуха - влажноcть воздуха, измеренная на высоте 2 м над землей.
Te - Эффективная температура - температура, которую ощущает одетый по сезону человек в тени. Характеристика душности погоды. При расчете учитывается влияние влажности воздуха и скорости ветра на теплоощущения человека.
Tes - Эффективная температура на солнце - температура, которую ощущает человек, с поправкой на солнечный нагрев. Характеристика знойности погоды. Зависит от высоты солнца над горизонтом, облачности и скорости ветра. Ночью, в пасмурную погоду, а также при ветре 12 м/с и более поправка равна нулю.
P - Атмосферное давление - приведенное к уровню моря атмосферное давление.
Po - Атмосферное давление - измеренное на уровне метеостанции атмосферное давление.
Tmin - Минимальная температура - минимум температуры воздуха на высоте 2 м над землей.
Tmax - Максимальная температура - максимум температуры воздуха на высоте 2 м над землей.
R - Количество осадков - Количество выпавших осадков за период времени, мм. При наведении курсора мыши на число - период времени, за который выпало указанное количество осадков.
R24 - Количество осадков - Количество выпавших осадков за 24 часа, мм.
S - Снежный покров - Высота снежного покрова, см. При наведении курсора мыши на число - состояние снежного покрова и степень покрытия местности в баллах.